Погода в Вышманове

Россия / Владимирская область     55°59′47″N   40°12′40″E
темп.,
°C
ветер,
м/с
пор.,
м/с
влажн.,
%
обл.,
%
осадки,
мм/ч
давл.,
гПа
погр.,
м
5 августа, чт
чт500:00+14ссз226910 0.0 101712
03:00+12ссв0170100 0.0 101810
06:00+14ююз11685 0.0 101814
09:00+21ю124711 0.0 1018656
12:00+24ю124090 0.0 10171837
15:00+24ююз1339100 0.0 10161922
18:00+22вюв3653100 0.0 1015259
21:00+15св4894100 3.0 1015163
6 августа, пт
пт600:00+15в4118996 0.1 1014254
03:00+14вюв3988100 0.2 1013234
06:00+15ю269299 0.4 1013164
09:00+20ююв4874100 0.8 1013496
12:00+20ю3677100 0.5 1013525
15:00+22ююз6969100 1.1 10121045
18:00+17вюв3397100 8.0 101291
21:00+17в379593 8.0 1012186
7 августа, сб
сб700:00+16в5139259 0.1 1011389
03:00+15в389891 0.9 1011227
06:00+16в379795 1.6 1011192
09:00+19юв3688100 3.9 1011320
12:00+24ююв366788 1.7 1011655
15:00+24ю375763 1.7 1011253
18:00+21вюв3668100 0.2 1011104
21:00+20вюв3116791 0.2 1011215
8 августа, вс
вс800:00+21ююв5146086 0.0 1011347
03:00+17ю31184100 0.2 1012218
06:00+17ююз2782100 0.0 1012168
09:00+23зюз3569100 0.0 1013475
12:00+26зюз3461100 0.0 10131068
15:00+25зюз2459100 0.0 10141083
18:00+24з3563100 0.0 1015654
21:00+19з2268100 0.1 101636
9 августа, пн
пн900:00+16сз25830 0.0 101783
03:00+15ссз11920 0.0 101811
06:00+16з12864 0.0 101849
09:00+22зюз125920 0.0 1019551
12:00+26з23452 0.0 10181479
15:00+27зсз233962 0.0 10181890
18:00+26ссз115196 0.0 1017524
21:00+20всв1168100 0.0 101811